[[{"header":{"parameterUnit":"m.s-1","parameterCategory":1,"la1":30.2991,"la2":30.254,"lo1":-89.0895,"lo2":-89.0444,"dy":0.0017,"dx":0.0017,"nx":28,"ny":28,"refTime":"2025-01-06T09:00:00:Z","depth":0,"parameterNumber":2,"parameterNumberName":"U-component_of_WINDS"},"data":[0,0,0,0,0,0,0,0,0,0,0,0,0,0,0,0,0,0,0,0,0,0,0,0,0,0,0,0,0,0,0,0,0,0,0,0,0,0,0,0,0,0,0,0,0,0,0,0,0,0,0,0,0,0,0,0,0,0,4.1801,4.1801,0,4.1827,4.1827,4.1827,4.1782,4.1781,4.1779,4.1778,4.1804,4.1806,4.1808,0,0,0,0,0,0,0,0,0,0,0,0,0,4.1713,4.1715,4.1801,4.1801,4.1801,4.1827,4.1827,4.1827,4.1783,4.1781,4.1779,4.1777,4.1803,4.1805,4.1808,0,0,0,0,0,0,0,0,0,0,0,0,0,4.1746,4.1715,4.1801,4.1782,4.1781,4.1827,4.1827,4.1828,4.1783,4.1781,4.1779,4.1776,4.1802,4.1805,4.1808,4.1873,0,0,4.1818,4.1819,0,0,0,0,0,0,0,0,4.1744,4.1749,4.1785,4.1783,4.1782,4.1799,4.1805,4.1843,4.1784,4.1782,4.1778,4.1775,4.1804,4.1807,4.1817,4.1874,4.1875,4.1818,4.182,4.1821,4.1822,0,0,0,0,0,0,0,4.1742,4.1748,4.1811,4.1785,4.1784,4.1773,4.1775,4.1812,4.1805,4.1782,4.1779,4.1783,4.1803,4.1814,4.1817,4.1876,4.1818,4.1821,4.1823,4.1824,4.1991,4.1993,0,0,0,0,0,0,4.1742,4.1746,4.181,4.1812,4.1757,4.1776,4.1779,4.1796,4.1805,4.1804,4.1785,4.178,4.1809,4.1813,4.1818,4.1896,4.1821,4.1824,4.1826,4.1988,4.1991,4.1994,0,0,0,0,0,0,4.174,4.1748,4.1809,4.1778,4.1785,4.178,4.18,4.1798,4.1808,4.1807,4.1805,4.1797,4.1808,4.1813,4.186,4.1896,4.1826,4.1829,4.1985,4.1989,4.1993,4.2051,0,0,0,0,0,0,4.1738,4.1748,4.1772,4.1779,4.1787,4.1851,4.1802,4.18,4.1814,4.1809,4.1818,4.1817,4.1806,4.1856,4.1863,4.1899,4.1831,4.1982,4.1987,4.1992,4.2046,4.2057,4.2066,0,0,0,0,0,4.1735,4.1787,4.1773,4.1781,4.1817,4.1853,4.1858,4.1845,4.1817,4.1842,4.1841,4.1817,4.1891,4.1861,4.1869,4.1906,4.198,4.1986,4.1991,4.2042,4.2055,4.2065,0,0,0,0,0,0,4.1783,4.1787,4.1772,4.1828,4.1841,4.1846,4.1876,4.1858,4.1878,4.1873,4.1855,4.1858,4.1909,4.1912,4.1879,4.1971,4.1931,4.1938,4.1966,4.1979,4.1988,4.1986,4.1834,0,0,0,0,0,4.18,4.1829,4.1831,4.188,4.1887,4.1881,4.1896,4.1885,4.1897,4.1902,4.1905,4.1918,4.1944,4.1961,4.1985,4.2047,4.2049,4.2076,4.2086,4.2094,4.2101,4.2135,4.2148,4.2013,4.2013,4.2013,0,0,4.1835,4.1841,4.186,4.189,4.1898,4.1929,4.1886,4.192,4.1943,4.1907,4.1952,4.1955,4.1968,4.2024,4.2048,4.2028,4.2139,4.2101,4.2108,4.211,4.2143,4.2155,4.2167,4.2017,4.2016,4.2015,0,0,4.1915,4.1923,4.1965,4.1975,4.1989,4.1985,4.1996,4.2004,4.2005,4.205,4.2025,4.2052,4.2097,4.2108,4.212,4.2208,4.2187,4.2216,4.2267,4.2301,4.2311,4.2321,4.2353,4.2365,4.2223,4.2223,4.2223,0,4.1957,4.2003,4.1989,4.2026,4.204,4.2011,4.2054,4.2065,4.2086,4.2097,4.2074,4.2132,4.2138,4.2197,4.2219,4.2229,4.2241,4.2215,4.2311,4.232,4.2329,4.236,4.2372,4.2227,4.2226,4.2226,4.2226,0,4.2055,4.2087,4.2119,4.2142,4.216,4.22,4.2193,4.2213,4.2201,4.2199,4.2247,4.2255,4.228,4.2294,4.2282,4.2351,4.2338,4.2314,4.2273,4.2346,4.2374,4.2386,4.2232,4.223,4.2229,4.2229,0,0,4.2164,4.218,4.2192,4.2203,4.2218,4.2243,4.2282,4.2308,4.2326,4.2343,4.2376,4.2416,4.2394,4.2408,4.2397,4.2427,4.2498,4.2399,4.2399,4.2418,4.2576,4.2595,4.2609,4.2485,4.2487,4.2488,4.2576,0,4.2244,4.2312,4.2302,4.2368,4.2399,4.2373,4.2407,4.2421,4.2421,4.2447,4.2448,4.2477,4.2445,4.2454,4.2482,4.2483,4.253,4.2477,4.2516,4.2517,4.2513,4.2623,4.2642,4.2724,4.2587,4.2588,4.259,0,4.2347,4.2369,4.2438,4.245,4.2463,4.2494,4.2518,4.2543,4.2559,4.2557,4.2573,4.2558,4.2598,4.2558,4.2614,4.2578,4.2594,4.2597,4.26,4.2603,4.2558,4.263,4.275,4.2762,4.2607,4.2606,4.2604,0,4.2421,4.2467,4.2515,4.2525,4.254,4.2563,4.257,4.2583,4.2601,4.2622,4.2634,4.2659,4.2673,4.2694,4.2687,4.2658,4.2745,4.2703,4.2745,4.2745,4.2764,4.2763,4.2888,4.2774,4.2774,4.2773,4.2773,0,4.2512,4.2555,4.2549,4.2578,4.2627,4.2616,4.2664,4.2668,4.2681,4.2711,4.269,4.2719,4.2708,4.2736,4.2731,4.2779,4.2785,4.2786,4.2784,4.2787,4.2788,4.2797,4.2791,4.2777,4.2776,4.2775,4.2775,0,4.2602,4.2599,4.265,4.2661,4.2665,4.2701,4.271,4.2739,4.2738,4.2777,4.2786,4.2785,4.2818,4.2813,4.2849,4.2846,4.2906,4.2897,4.2901,4.2899,4.2941,4.2938,4.3078,4.3096,4.2969,4.297,4.2971,0,4.266,4.2694,4.2709,4.2729,4.2738,4.2769,4.2787,4.2778,4.2798,4.2819,4.2845,4.2876,4.2901,4.2955,4.2958,4.2986,4.2977,4.3025,4.2981,4.2985,4.2979,4.2977,4.2981,4.3033,4.3034,4.3036,4.3037,0,4.2765,4.2762,4.2789,4.2817,4.284,4.286,4.2879,4.2896,4.2889,4.2913,4.2946,4.2966,4.3004,4.3035,4.3062,4.307,4.3053,4.3051,4.3062,4.3066,4.3067,4.3068,4.2925,4.3047,4.3046,4.3045,4.3045,4.3044,4.2841,4.287,4.2887,4.2918,4.2932,4.2951,4.2978,4.2982,4.3011,4.3041,4.3034,4.3073,4.3089,4.3124,4.3135,4.3166,4.3148,4.3164,4.3168,4.3173,4.3178,4.3063,4.317,4.317,4.317,4.3169,4.3169,0,4.2945,4.2955,4.2984,4.3012,4.3037,4.302,4.3041,4.3063,4.3097,4.3114,4.314,4.318,4.3211,4.3218,4.3248,4.3271,4.3264,4.3279,4.3277,4.328,4.3191,4.3179,4.3285,4.3285,4.3285,4.3284,4.3284,4.3284,4.3002,4.3051,4.3051,4.3107,4.3117,4.3155,4.3169,4.3186,4.32,4.3246,4.3272,4.3277,4.329,4.3321,4.335,4.3351,4.3363,4.3382,4.338,4.3297,4.3286,4.3275,4.3263,4.3385,4.3385,4.3466,4.3467,4.3467]},{"header":{"parameterUnit":"m.s-1","parameterCategory":1,"la1":30.2991,"la2":30.254,"lo1":-89.0895,"lo2":-89.0444,"dy":0.0017,"dx":0.0017,"nx":28,"ny":28,"refTime":"2025-01-06T09:00:00:Z","depth":0,"parameterNumber":3,"parameterNumberName":"V-component_of_WINDS"},"data":[0,0,0,0,0,0,0,0,0,0,0,0,0,0,0,0,0,0,0,0,0,0,0,0,0,0,0,0,0,0,0,0,0,0,0,0,0,0,0,0,0,0,0,0,0,0,0,0,0,0,0,0,0,0,0,0,0,0,-7.7694,-7.7696,0,-7.7859,-7.786,-7.7862,-7.7851,-7.7849,-7.7847,-7.7844,-7.8008,-7.8014,-7.8021,0,0,0,0,0,0,0,0,0,0,0,0,0,-7.7367,-7.7374,-7.7694,-7.7696,-7.7698,-7.7858,-7.786,-7.7863,-7.7852,-7.7849,-7.7846,-7.7843,-7.8006,-7.8013,-7.8021,0,0,0,0,0,0,0,0,0,0,0,0,0,-7.7518,-7.7376,-7.7693,-7.7712,-7.7715,-7.7858,-7.7861,-7.7863,-7.7852,-7.7849,-7.7845,-7.7842,-7.8003,-7.8013,-7.8022,-7.8156,0,0,-7.8053,-7.8057,0,0,0,0,0,0,0,0,-7.751,-7.753,-7.7707,-7.7711,-7.7715,-7.7831,-7.7805,-7.7961,-7.7853,-7.78,-7.7844,-7.784,-7.7952,-7.7965,-7.8004,-7.8163,-7.817,-7.8054,-7.806,-7.8064,-7.8067,0,0,0,0,0,0,0,-7.7499,-7.7523,-7.7759,-7.771,-7.7715,-7.7711,-7.7729,-7.7835,-7.7894,-7.7804,-7.7804,-7.7824,-7.7953,-7.7995,-7.8008,-7.8173,-7.8053,-7.8062,-7.8068,-7.8072,-7.8452,-7.8456,0,0,0,0,0,0,-7.7485,-7.7514,-7.7754,-7.7764,-7.7601,-7.772,-7.7739,-7.7797,-7.7893,-7.7904,-7.7827,-7.7823,-7.7979,-7.7996,-7.8014,-7.8178,-7.8064,-7.8073,-7.8079,-7.8448,-7.8453,-7.8458,0,0,0,0,0,0,-7.7478,-7.7507,-7.7747,-7.7639,-7.767,-7.7729,-7.7794,-7.7802,-7.7844,-7.791,-7.792,-7.7859,-7.7977,-7.8,-7.8122,-7.8183,-7.8077,-7.8086,-7.8443,-7.845,-7.8456,-7.8506,0,0,0,0,0,0,-7.7469,-7.7504,-7.7556,-7.764,-7.7675,-7.7853,-7.7798,-7.7808,-7.7862,-7.7858,-7.7942,-7.7953,-7.7976,-7.8107,-7.8131,-7.8195,-7.8094,-7.8438,-7.8446,-7.8454,-7.8499,-7.8513,-7.8525,0,0,0,0,0,-7.7457,-7.7562,-7.7559,-7.7587,-7.7742,-7.7857,-7.7876,-7.7903,-7.7867,-7.7919,-7.7962,-7.795,-7.8173,-7.8119,-7.8147,-7.8214,-7.8434,-7.8444,-7.8453,-7.8493,-7.8511,-7.8525,0,0,0,0,0,0,-7.7481,-7.7573,-7.757,-7.7706,-7.7774,-7.7855,-7.7921,-7.792,-7.7998,-7.7991,-7.8018,-7.8037,-7.816,-7.8199,-7.8138,-7.835,-7.8299,-7.8314,-7.832,-7.8337,-7.835,-7.8338,-7.8102,0,0,0,0,0,-7.7502,-7.7589,-7.7664,-7.7777,-7.7811,-7.7861,-7.7912,-7.7926,-7.7997,-7.8025,-7.8076,-7.8144,-7.823,-7.8285,-7.8367,-7.8505,-7.8524,-7.8565,-7.8578,-7.8589,-7.8601,-7.8679,-7.8699,-7.8489,-7.8489,-7.8488,0,0,-7.7546,-7.7607,-7.766,-7.7783,-7.7837,-7.7926,-7.7885,-7.798,-7.8046,-7.8039,-7.8158,-7.8199,-7.8276,-7.8407,-7.8467,-7.8443,-7.8664,-7.8601,-7.8608,-7.8616,-7.8691,-7.8711,-7.8728,-7.8495,-7.8494,-7.8493,0,0,-7.7672,-7.7727,-7.7828,-7.7884,-7.7968,-7.8,-7.8025,-7.8107,-7.8134,-7.8255,-7.8252,-7.833,-7.8476,-7.8533,-7.858,-7.8731,-7.8724,-7.8757,-7.8825,-7.8901,-7.8917,-7.8932,-7.8987,-7.9007,-7.877,-7.877,-7.877,0,-7.7716,-7.7851,-7.7879,-7.7976,-7.8031,-7.8031,-7.8133,-7.8186,-7.8291,-7.8329,-7.8301,-7.8487,-7.8539,-7.8684,-7.8721,-7.8759,-7.8788,-7.8747,-7.8913,-7.8928,-7.8942,-7.8995,-7.9016,-7.8773,-7.8773,-7.8773,-7.8772,0,-7.7901,-7.7995,-7.8066,-7.8171,-7.8234,-7.8333,-7.8376,-7.8435,-7.8445,-7.8481,-7.8604,-7.8668,-7.8764,-7.8799,-7.8808,-7.8946,-7.8929,-7.8907,-7.8856,-7.8966,-7.9016,-7.9036,-7.8779,-7.8777,-7.8776,-7.8775,0,0,-7.8045,-7.8167,-7.8192,-7.8241,-7.8335,-7.8408,-7.8507,-7.8603,-7.8655,-7.8728,-7.8812,-7.8938,-7.8919,-7.8973,-7.8989,-7.9055,-7.9173,-7.9025,-7.9027,-7.9051,-7.9331,-7.9347,-7.937,-7.9169,-7.9173,-7.9176,-7.9324,0,-7.8182,-7.836,-7.8389,-7.8546,-7.8634,-7.8636,-7.8723,-7.879,-7.8826,-7.8906,-7.8945,-7.9034,-7.9002,-7.9035,-7.9101,-7.9144,-7.9229,-7.9134,-7.9247,-7.9251,-7.9228,-7.9396,-7.9414,-7.9551,-7.9344,-7.9347,-7.935,0,-7.8364,-7.8446,-7.8611,-7.8696,-7.8734,-7.8812,-7.8904,-7.8979,-7.9055,-7.9077,-7.914,-7.9149,-7.9252,-7.9197,-7.934,-7.9275,-7.9323,-7.9352,-7.9358,-7.937,-7.9307,-7.9413,-7.9595,-7.9616,-7.9381,-7.9378,-7.9376,0,-7.8454,-7.8605,-7.8724,-7.8766,-7.8867,-7.8922,-7.8966,-7.9039,-7.9096,-7.9176,-7.9213,-7.9303,-7.9352,-7.9421,-7.9454,-7.9411,-7.9596,-7.9543,-7.9617,-7.9616,-7.9655,-7.9653,-7.9849,-7.9686,-7.9685,-7.9685,-7.9684,0,-7.8604,-7.8706,-7.8767,-7.884,-7.8954,-7.8987,-7.9099,-7.9142,-7.9207,-7.9289,-7.9296,-7.9372,-7.941,-7.9492,-7.9518,-7.9634,-7.9655,-7.9676,-7.9682,-7.9676,-7.9674,-7.9708,-7.97,-7.969,-7.9689,-7.9688,-7.9687,0,-7.8724,-7.8768,-7.8899,-7.8986,-7.901,-7.909,-7.9164,-7.9235,-7.9272,-7.9375,-7.9401,-7.9459,-7.9556,-7.9596,-7.9714,-7.9732,-7.9865,-7.9863,-7.984,-7.9842,-7.9914,-7.9907,-8.0139,-8.0172,-7.9987,-7.9988,-7.999,0,-7.8816,-7.8895,-7.8991,-7.9048,-7.9095,-7.9184,-7.9244,-7.9279,-7.934,-7.9435,-7.9495,-7.9592,-7.9673,-7.9828,-7.9879,-7.997,-7.9971,-8.0046,-7.9984,-7.9977,-7.9974,-7.9969,-7.9978,-8.0057,-8.0059,-8.0061,-8.0062,0,-7.8977,-7.8996,-7.9082,-7.9177,-7.9247,-7.9323,-7.9396,-7.9441,-7.9488,-7.9557,-7.9657,-7.972,-7.9843,-7.994,-8.0034,-8.0079,-8.0079,-8.0081,-8.0103,-8.0098,-8.0082,-8.0093,-7.9872,-8.0076,-8.0074,-8.0073,-8.0073,-8.0072,-7.9087,-7.9158,-7.9238,-7.9334,-7.9393,-7.9463,-7.9535,-7.9582,-7.9668,-7.9772,-7.9787,-7.9895,-7.9971,-8.0099,-8.0148,-8.0232,-8.0213,-8.0244,-8.0253,-8.026,-8.0266,-8.0069,-8.0249,-8.0249,-8.0249,-8.0248,-8.0248,0,-7.9249,-7.9302,-7.9389,-7.9494,-7.9569,-7.9565,-7.9647,-7.971,-7.9806,-7.9877,-7.9957,-8.0074,-8.0169,-8.0229,-8.0325,-8.0381,-8.0384,-8.0405,-8.0402,-8.0412,-8.0277,-8.0249,-8.0402,-8.0402,-8.0402,-8.0402,-8.0402,-8.0402,-7.9343,-7.9464,-7.9493,-7.9643,-7.9694,-7.9802,-7.985,-7.9914,-7.9972,-8.0102,-8.0182,-8.0222,-8.0289,-8.0391,-8.0478,-8.0493,-8.0528,-8.0551,-8.0565,-8.0438,-8.0422,-8.0406,-8.038,-8.0559,-8.0559,-8.0694,-8.0695,-8.0696]}]]